Flag for Brazil Weather past 2 weeks in Tabatinga, Amazonas, Brazil

Now
82 °F

Scattered clouds.


Feels Like: 89 °F
Forecast: 74 / 87 °F
Wind: No wind

Location: Leticia / Vasquez Cobo

Current Time: Mar 27, 2015 at 8:49:29 AM

Latest Report: Mar 27, 2015 at 8:00 AM


Visibility: N/A

Pressure: 29.91 "Hg

Humidity: 79%

Dew point: 75 °F

Location of TabatingaLocation

Historic Weather in Tabatinga — Graph

°F

Tabatinga temperature yesterday

Maximum temperature yesterday: 91 °F (at 3:00 PM)
Minimum temperature yesterday: 73 °F (at 6:00 AM)
Average temperature yesterday: 81 °F

Past Weeks' High & Low Weather Summary

 TemperatureHumidityPressure
High91 °F (Mar 24, 2:00 PM)100% (Mar 12, 4:00 PM)30.09 "Hg (Mar 12, 4:00 PM)
Low68 °F (Mar 19, 11:00 AM)67% (Mar 24, 2:00 PM)29.67 "Hg (Mar 13, 4:00 PM)
Average79 °F91%29.84 "Hg
* Reported Mar 12 7:00 AM — Mar 27 7:00 AM, Tabatinga, Weather by CustomWeather, © 2015

Note: Actual official high and low records may vary slightly from our data, if they occured in-between our weather recording intervals... More about our weather records

Advertising

Tabatinga weather history for previous 24 hours

 ConditionsComfort  
Time TempWeatherWind HumidityBarometerVisibility
7:00 AM
Fri, Mar 27
77 °FScattered clouds.No wind94%29.91 "HgN/A
6:00 AM77 °FBroken clouds.No wind94%29.89 "HgN/A
5:00 AM75 °FPassing clouds.No wind100%29.88 "HgN/A
4:00 AM75 °FPassing clouds.No wind94%29.84 "HgN/A
3:00 AM75 °FPassing clouds.No wind100%29.83 "HgN/A
2:00 AM75 °FPassing clouds.No wind100%29.84 "HgN/A
1:00 AM77 °FPassing clouds.No wind94%29.85 "HgN/A
12:00 AM77 °FPassing clouds.No wind94%29.86 "HgN/A
11:00 PM
Thu, Mar 26
77 °FPassing clouds.No wind94%29.88 "HgN/A
10:00 PM77 °FPassing clouds.No wind94%29.87 "HgN/A
9:00 PM77 °FPassing clouds.No wind94%29.80 "HgN/A
8:00 PM79 °FPassing clouds.No wind94%29.78 "HgN/A
7:00 PM81 °FPassing clouds.No wind89%29.77 "HgN/A
6:00 PM82 °FPassing clouds.No wind89%29.76 "HgN/A
5:00 PM84 °FPartly sunny.2 mph84%29.76 "HgN/A
4:00 PM88 °FBroken clouds.5 mph79%29.74 "HgN/A
3:00 PM91 °FScattered clouds.5 mph71%29.75 "HgN/A
2:00 PM90 °FBroken clouds.3 mph71%29.80 "HgN/A
1:00 PM86 °FBroken clouds.3 mph79%29.85 "HgN/A
12:00 PM88 °FPartly sunny.3 mph75%29.88 "HgN/A
11:00 AM86 °FPartly sunny.3 mph79%29.91 "HgN/A
10:00 AM84 °FPartly sunny.3 mph84%29.92 "HgN/A
9:00 AM84 °FScattered clouds.2 mph79%29.92 "HgN/A
8:00 AM79 °FScattered clouds.No wind94%29.91 "HgN/A
Weather by CustomWeather, © 2015

See weather overviewHow to use our weather pages